CZ-6A DEB

Satellite information

Favourite Embed

Satellite Type and Status

DEBRISIN ORBIT

Key statistics

Satellite CZ-6A DEB at a glance.

Uptime

273

Days in orbit

Revolutions

≈ 14.2

Per day

Orbit

LEO

Low Earth Orbit

Inclination

89.0

Latest

Satellite identification and parameters

Extended collection of information and parameters for CZ-6A DEB.

Object identification

Identified? True

Debris? True

Object name: CZ-6A DEB

International designator: 2024-140NX

Object number (NORAD): 61105

Object ID (CCSDS): 61105

Country: PEOPLES REPUBLIC OF CHINA (PRC)

Current information (Y/N): Y

RCS size: SMALL

Orbital parameters

Period: 101.295 minutes

Inclination: 89.0085 deg

SMA: 7198.129 km

Apoapsis: 853.622 km

Periapsis: 786.366 km

RAAN: 320.7599 deg

Eccentricy: 0.0046718

Argument of periapsis: 83.7673 deg

Mean anomaly: 276.8837 deg

Mean motion: 14.21586621 rev/day

Mean motion (dot): 0.00002573 rev/day2

B* drag term: 0.001155 1/REarth

Two-line elements (TLE)

Creation date: May 6, 2025, 3:54 a.m.

Reference frame: TEME

Reference center: EARTH

Epoch: May 5, 2025, 7:28 p.m. UTC

TLE line 0: 0 CZ-6A DEB

TLE line 1: 1 61105U 24140NX 25125.81179798 .00002573 00000-0 11550-2 0 9990

TLE line 2: 2 61105 89.0085 320.7599 0046718 83.7673 276.8837 14.21586621 35645

Live tracking on map

Real-time ground track for satellite CZ-6A DEB.

In-orbit conjunctions

A list of the most updated potential collisions computed for object CZ-6A DEB.

Target Orbit TCA Probability of collision Miss distance Type
FENGYUN 1C DEB SSO 2025-02-18 00:25:56 0.0001615637 167.0 (m) DEBRIS
NOAA 16 DEB SSO 2025-01-21 01:25:50 0.0003101544 372.0 (m) DEBRIS
COSMOS 1818 LEO 2025-01-08 00:38:26 0.0004351953 334.0 (m) PAYLOAD
COSMOS 2251 DEB LEO 2024-11-24 03:42:15 0.0001542301 734.0 (m) DEBRIS
SL-24 R/B SSO 2024-11-13 10:47:17 0.0005071077 190.0 (m) ROCKET BODY

Associated space launch

18 Low Earth Orbit communication satellites with Ku, Q and V band payloads for the G60 constellation operated by Shanghai Spacecom Satellite Technology (SSST) with funding backed by the Shanghai local government. Initial constellation will consist of 1296 satellites by 2027 with long term plans to expand it to 12000 satellites.

CZ-6A DEB was lifted into orbit during the mission ‘Long March 6A | G60 Polar Group 01’, on board a Long March 6A space rocket.

The launch took place on Aug. 6, 2024, 6:42 a.m. from Launch Complex 9A.

For more information about the launch, click the button.

Launch to space Long March 6A | G60 Polar Group 01
Long March 6A | G60 Polar Group 01

Agency: N/A

Status: Launch Successful

Launch date: Aug. 6, 2024, 6:42 a.m. UTC

Rocket: Long March 6A

Launch pad: Launch Complex 9A

Location: Taiyuan Satellite Launch Center, People's Republic of China

...

Latest news about this satellite

News about space launch
Brightness of first Chinese broadband constellation satellites alarms astronomers

The first satellites of a Chinese broadband constellation are significantly brighter than those of Western systems, posing a new challenge for astronomers.

News about space launch
Chinese rocket stage breaks up into cloud of more than 700 pieces of space debris

HELSINKI — A Chinese Long March 6A rocket’s upper stage has fragmented into a cloud of over 700 pieces of space debris, adding to concerns about long-term orbital safety. China […]

News about space launch
China's Thousand Sails Megaconstellation Kicks Off with Dangerous Debris Field

China's Thousand Sails Megaconstellation Kicks Off with Dangerous Debris Field


Newsletter sign-up

Weekly statistics, charts and insights to help you stay on top of the space industry.